GW4885 Weather Reports


Display with metric or nautical units.
time (UTC)temp
F
wind
direction
speed
MPH
gust
MPH
rain 1hr
in
rain 24hr
in
rain mn
in
humidity
%
barometer
mb
20260510081334 38 279 1.0 1.0 0.00 0.00 0.00 99 1016.2
20260510080830 38 156 0.0 0.0 0.00 0.00 0.00 99 1015.9
20260510080325 38 230 0.0 1.0 0.00 0.00 0.00 99 1015.7
20260510075822 38 193 0.0 1.0 0.00 0.00 0.00 99 1015.7
20260510075319 38 296 0.0 1.0 0.00 0.00 0.00 99 1015.9
20260510074816 38 112 0.0 0.0 0.00 0.00 0.00 99 1015.8
20260510074314 39 111 0.0 0.0 0.00 0.00 0.00 99 1015.8
20260510073809 39 104 0.0 0.0 0.00 0.00 0.00 99 1015.8
20260510073305 39 105 0.0 1.0 0.00 0.00 0.00 99 1015.9
20260510072801 39 94 0.0 0.0 0.00 0.00 0.00 99 1015.9
20260510072258 39 97 0.0 0.0 0.00 0.00 0.00 99 1015.8
20260510071754 39 87 1.0 1.0 0.00 0.00 0.00 99 1015.7
20260510071251 39 315 0.0 0.0 0.00 0.00 0.00 99 1015.5
20260510070750 39 350 0.0 1.0 0.00 0.00 0.00 99 1015.6
20260510070247 39 126 2.0 2.0 0.00 0.00 0.00 99 1015.5
20260510065746 38 118 0.0 0.0 0.00 0.00 0.00 99 1015.6
20260510065243 39 118 1.0 1.0 0.00 0.00 0.00 99 1015.5
20260510064740 39 130 1.0 1.0 0.00 0.00 0.00 99 1015.3
20260510064238 39 104 0.0 2.0 0.00 0.00 0.00 99 1015.3
20260510063733 40 84 0.0 1.0 0.00 0.00 0.00 99 1015.5
20260510063230 40 115 0.0 1.0 0.00 0.00 0.00 99 1015.5
20260510062727 39 100 0.0 1.0 0.00 0.00 0.00 99 1015.1
20260510062223 39 152 0.0 0.0 0.00 0.00 0.00 99 1015.3
20260510061718 39 182 0.0 1.0 0.00 0.00 0.00 99 1015.6
20260510061216 40 300 1.0 1.0 0.00 0.00 0.00 99 1015.2
20260510060712 40 104 0.0 0.0 0.00 0.00 0.00 99 1015.6
20260510060208 40 105 1.0 1.0 0.00 0.00 0.00 99 1015.5
20260510055705 40 116 0.0 1.0 0.00 0.00 0.00 99 1015.5
20260510055203 40 93 0.0 0.0 0.00 0.00 0.00 99 1015.3
20260510054658 40 137 0.0 0.0 0.00 0.00 0.00 99 1015.2
20260510054154 40 173 0.0 0.0 0.00 0.00 0.00 99 1015.3
20260510053654 39 288 0.0 0.0 0.00 0.00 0.00 98 1015.2
20260510053151 40 288 0.0 1.0 0.00 0.00 0.00 98 1015.3
20260510052646 40 280 0.0 0.0 0.00 0.00 0.00 98 1015.3
20260510052142 41 226 0.0 0.0 0.00 0.00 0.00 98 1015.1
20260510051638 41 295 0.0 2.0 0.00 0.00 0.00 98 1015.3
20260510051135 41 124 0.0 0.0 0.00 0.00 0.00 98 1015.5
20260510050632 42 122 0.0 0.0 0.00 0.00 0.00 98 1015.6
20260510050130 42 168 0.0 0.0 0.00 0.00 0.00 99 1015.5
20260510045626 41 24 0.0 0.0 0.00 0.00 0.00 99 1015.6
20260510045123 42 335 0.0 0.0 0.00 0.00 0.00 98 1015.5
20260510044619 42 335 0.0 0.0 0.00 0.00 0.00 98 1015.6
20260510044117 42 325 0.0 0.0 0.00 0.00 0.00 98 1015.7
20260510043612 42 320 0.0 1.0 0.00 0.00 0.00 98 1015.5
20260510043108 42 115 0.0 1.0 0.00 0.00 0.00 98 1015.6
20260510042607 43 29 0.0 0.0 0.00 0.00 0.00 98 1015.8
20260510042102 43 25 0.0 0.0 0.00 0.00 0.00 98 1015.8
20260510041559 42 86 0.0 0.0 0.00 0.00 0.00 97 1015.8
20260510041057 42 81 0.0 0.0 0.00 0.00 0.00 97 1015.6
20260510040554 43 124 0.0 1.0 0.00 0.00 0.00 97 1015.9
20260510040049 43 77 0.0 0.0 0.00 0.00 0.00 97 1015.9
20260510035546 43 77 0.0 0.0 0.00 0.00 0.00 97 1015.8
20260510035045 43 99 0.0 0.0 0.00 0.00 0.00 96 1015.7
20260510034544 43 100 0.0 0.0 0.00 0.00 0.00 96 1015.7
20260510034041 44 100 0.0 0.0 0.00 0.00 0.00 95 1015.7
20260510033536 44 100 0.0 0.0 0.00 0.00 0.00 95 1015.5
20260510033035 44 100 0.0 0.0 0.00 0.00 0.00 95 1015.7
20260510032531 45 100 0.0 0.0 0.00 0.00 0.00 95 1015.6
20260510032026 45 100 0.0 0.0 0.00 0.00 0.00 96 1015.7
20260510031521 44 100 0.0 0.0 0.00 0.00 0.00 96 1015.5
20260510031018 44 101 0.0 0.0 0.00 0.00 0.00 95 1015.5
20260510030513 45 123 0.0 0.0 0.00 0.00 0.00 95 1015.3
20260510030011 44 123 0.0 0.0 0.00 0.00 0.00 95 1015.5
20260510025508 45 123 0.0 0.0 0.00 0.00 0.00 93 1015.3
20260510025006 45 123 0.0 0.0 0.00 0.00 0.00 92 1015.1
20260510024502 45 123 0.0 0.0 0.00 0.00 0.00 93 1015.5
20260510023958 45 123 0.0 0.0 0.00 0.00 0.00 93 1015.2
20260510023454 46 123 0.0 0.0 0.00 0.00 0.00 92 1015.0
20260510022951 46 123 0.0 0.0 0.00 0.00 0.00 93 1015.3
20260510022450 46 123 0.0 0.0 0.00 0.00 0.00 92 1014.9
20260510021949 46 123 0.0 0.0 0.00 0.00 0.00 91 1015.1
20260510021448 46 123 0.0 0.0 0.00 0.00 0.00 90 1014.8
20260510020944 47 123 0.0 0.0 0.00 0.00 0.00 90 1014.8
20260510020438 47 123 0.0 0.0 0.00 0.00 0.00 88 1014.5
20260510015934 48 123 0.0 0.0 0.00 0.00 0.00 88 1014.6
20260510015430 48 123 0.0 0.0 0.00 0.00 0.00 87 1014.4
20260510014925 48 146 0.0 0.0 0.00 0.00 0.00 89 1014.5
20260510014423 48 151 0.0 0.0 0.00 0.00 0.00 88 1014.3
20260510013919 49 189 0.0 0.0 0.00 0.00 0.00 87 1014.2
20260510013414 49 190 0.0 0.0 0.00 0.00 0.00 87 1014.1
20260510012910 49 191 0.0 0.0 0.00 0.00 0.00 85 1014.1
20260510012405 50 212 0.0 0.0 0.00 0.00 0.00 84 1014.1
20260510011900 51 279 0.0 0.0 0.00 0.00 0.00 83 1013.9
20260510011355 51 281 0.0 0.0 0.00 0.00 0.00 81 1014.1
20260510010852 51 295 1.0 1.0 0.00 0.00 0.00 81 1014.0
20260510010349 52 152 0.0 0.0 0.00 0.00 0.00 80 1013.6
20260510005846 52 152 0.0 1.0 0.00 0.00 0.00 79 1013.5
20260510005342 53 152 0.0 0.0 0.00 0.00 0.00 77 1013.5
20260510004840 53 211 0.0 0.0 0.00 0.00 0.00 79 1013.4
20260510004337 53 255 0.0 0.0 0.00 0.00 0.00 77 1013.4
20260510003835 55 311 0.0 0.0 0.00 0.00 0.00 74 1013.3
20260510003332 56 345 0.0 0.0 0.00 0.00 0.00 73 1013.2
20260510002830 57 345 0.0 0.0 0.00 0.00 0.00 68 1013.2
20260510002327 58 301 0.0 1.0 0.00 0.00 0.00 65 1013.3
20260510001824 58 266 0.0 0.0 0.00 0.00 0.00 63 1013.1
20260510001322 59 212 0.0 0.0 0.00 0.00 0.00 61 1012.9
20260510000818 60 213 0.0 0.0 0.00 0.00 0.00 60 1012.9
20260510000318 61 227 0.0 0.0 0.00 0.00 0.00 58 1013.1
20260509235813 63 142 0.0 1.0 0.00 0.00 0.00 56 1012.8
20260509235309 64 238 1.0 2.0 0.00 0.00 0.00 53 1012.8
20260509234805 64 193 0.0 3.0 0.00 0.00 0.00 53 1012.7
20260509234302 64 280 1.0 1.0 0.00 0.00 0.00 52 1012.6
20260509233800 64 95 0.0 0.0 0.00 0.00 0.00 52 1012.6
20260509233257 65 243 0.0 1.0 0.00 0.00 0.00 52 1012.5
20260509232753 65 268 1.0 2.0 0.00 0.00 0.00 50 1012.4
20260509232251 63 118 0.0 1.0 0.00 0.00 0.00 54 1012.4
20260509231747 62 298 2.0 2.0 0.00 0.00 0.00 54 1012.6
20260509231244 63 302 0.0 2.0 0.00 0.00 0.00 52 1012.7
20260509230741 65 287 2.0 6.0 0.00 0.00 0.00 51 1012.7
20260509230238 66 298 1.0 2.0 0.00 0.00 0.00 48 1012.6
20260509225733 64 299 4.0 7.0 0.00 0.00 0.00 50 1012.8
20260509225230 64 225 3.0 6.0 0.00 0.00 0.00 49 1012.9
20260509224725 64 274 5.0 9.0 0.00 0.00 0.00 50 1012.9
20260509224223 67 321 5.0 8.0 0.00 0.00 0.00 48 1012.9
20260509223719 67 281 2.0 7.0 0.00 0.00 0.00 50 1012.8
20260509223217 66 304 1.0 3.0 0.00 0.00 0.00 50 1012.9
20260509222713 65 307 7.0 10.0 0.00 0.00 0.00 48 1012.8
20260509222209 66 298 1.0 6.0 0.00 0.00 0.00 48 1012.9
20260509221704 66 138 2.0 7.0 0.00 0.00 0.00 48 1012.8
20260509221201 66 283 2.0 8.0 0.00 0.00 0.00 48 1012.8
20260509220657 66 178 0.0 4.0 0.00 0.00 0.00 49 1012.7
20260509220154 66 276 7.0 10.0 0.00 0.00 0.00 46 1012.8
20260509215649 66 292 6.0 9.0 0.00 0.00 0.00 46 1012.8
20260509215146 65 104 1.0 2.0 0.00 0.00 0.00 47 1012.7
20260509214643 65 157 1.0 2.0 0.00 0.00 0.00 47 1012.7
20260509214140 66 292 3.0 13.0 0.00 0.00 0.00 47 1012.7
20260509213637 66 288 8.0 9.0 0.00 0.00 0.00 46 1012.5
20260509213132 66 305 3.0 9.0 0.00 0.00 0.00 46 1012.5
20260509212630 66 296 3.0 10.0 0.00 0.00 0.00 45 1012.5
20260509212127 68 258 3.0 7.0 0.00 0.00 0.00 44 1012.5
20260509211623 70 345 3.0 4.0 0.00 0.00 0.00 40 1012.2
20260509211119 66 305 1.0 4.0 0.00 0.00 0.00 46 1012.1
20260509210617 65 82 1.0 3.0 0.00 0.00 0.00 44 1012.2
20260509210114 66 239 2.0 3.0 0.00 0.00 0.00 43 1012.1
20260509205614 66 298 1.0 4.0 0.00 0.00 0.00 44 1011.9
20260509205109 67 341 2.0 3.0 0.00 0.00 0.00 44 1011.9
20260509204605 68 287 4.0 7.0 0.00 0.00 0.00 43 1011.9
20260509204102 68 338 2.0 3.0 0.00 0.00 0.00 42 1011.8
20260509203558 70 309 3.0 6.0 0.00 0.00 0.00 42 1011.8
20260509203056 71 118 3.0 9.0 0.00 0.00 0.00 43 1011.6
20260509202550 67 294 1.0 3.0 0.00 0.00 0.00 46 1011.6
20260509202046 68 192 2.0 4.0 0.00 0.00 0.00 45 1011.5
20260509201541 69 182 1.0 3.0 0.00 0.00 0.00 46 1011.7
20260509201039 68 185 2.0 4.0 0.00 0.00 0.00 50 1011.6
20260509200538 68 2 1.0 4.0 0.00 0.00 0.00 47 1011.7
20260509200036 70 266 4.0 7.0 0.00 0.00 0.00 48 1011.6
20260509195532 69 274 2.0 4.0 0.00 0.00 0.00 47 1011.6
20260509195031 68 200 5.0 7.0 0.00 0.00 0.00 49 1011.6
20260509194526 68 318 2.0 6.0 0.00 0.00 0.00 49 1011.6
20260509194024 68 328 2.0 7.0 0.00 0.00 0.00 51 1011.6
20260509193524 68 199 1.0 3.0 0.00 0.00 0.00 52 1011.7
20260509193022 68 94 1.0 4.0 0.00 0.00 0.00 50 1011.6
20260509192517 68 259 1.0 4.0 0.00 0.00 0.00 49 1011.7
20260509192013 67 288 2.0 3.0 0.00 0.00 0.00 52 1011.8
20260509191507 68 61 1.0 6.0 0.00 0.00 0.00 50 1011.7
20260509191003 69 44 2.0 4.0 0.00 0.00 0.00 49 1011.7
20260509190500 68 230 3.0 4.0 0.00 0.00 0.00 45 1011.8
20260509185958 67 297 3.0 3.0 0.00 0.00 0.00 49 1011.9
20260509185455 67 292 3.0 7.0 0.00 0.00 0.00 51 1012.0
20260509184952 67 328 1.0 2.0 0.00 0.00 0.00 52 1011.8
20260509184451 67 315 1.0 3.0 0.00 0.00 0.00 50 1011.9
20260509183947 67 306 2.0 6.0 0.00 0.00 0.00 48 1011.9
20260509183447 67 150 0.0 6.0 0.00 0.00 0.00 49 1012.0
20260509182943 68 336 4.0 6.0 0.00 0.00 0.00 47 1012.0
20260509182439 68 315 2.0 6.0 0.00 0.00 0.00 49 1012.0
20260509181937 67 319 1.0 6.0 0.00 0.00 0.00 51 1011.9
20260509181435 70 296 3.0 7.0 0.00 0.00 0.00 50 1012.0
20260509180932 67 1 0.0 1.0 0.00 0.00 0.00 53 1012.1
20260509180427 67 328 1.0 3.0 0.00 0.00 0.00 49 1012.0
20260509175924 68 321 1.0 4.0 0.00 0.00 0.00 49 1012.2
20260509175421 67 300 1.0 2.0 0.00 0.00 0.00 57 1012.2
20260509174917 67 138 0.0 6.0 0.00 0.00 0.00 53 1012.1
20260509174413 66 303 3.0 4.0 0.00 0.00 0.00 50 1012.2
20260509173909 67 233 1.0 7.0 0.00 0.00 0.00 55 1012.2
20260509173409 68 103 2.0 6.0 0.00 0.00 0.00 49 1012.4
20260509172906 68 286 2.0 4.0 0.00 0.00 0.00 50 1012.6
20260509172403 67 183 5.0 7.0 0.00 0.00 0.00 56 1012.4
20260509171859 64 65 6.0 7.0 0.00 0.00 0.00 51 1012.5
20260509171355 64 102 0.0 2.0 0.00 0.00 0.00 57 1012.7
20260509170851 64 298 1.0 7.0 0.00 0.00 0.00 57 1012.9
20260509170347 64 314 1.0 4.0 0.00 0.00 0.00 57 1012.9
20260509165847 63 212 0.0 3.0 0.00 0.00 0.00 58 1012.8
20260509165336 63 110 0.0 2.0 0.00 0.00 0.00 60 1012.9
20260509164833 63 240 1.0 3.0 0.00 0.00 0.00 64 1012.9
20260509164329 62 315 4.0 7.0 0.00 0.00 0.00 59 1013.1
20260509163825 63 28 0.0 2.0 0.00 0.00 0.00 63 1013.0
20260509163322 63 299 2.0 3.0 0.00 0.00 0.00 63 1012.8
20260509162822 64 341 2.0 3.0 0.00 0.00 0.00 60 1012.9
20260509162320 63 237 1.0 4.0 0.00 0.00 0.00 62 1012.8
20260509161816 64 21 1.0 2.0 0.00 0.00 0.00 59 1012.7
20260509161313 63 116 0.0 3.0 0.00 0.00 0.00 62 1012.6
20260509160808 62 119 0.0 2.0 0.00 0.00 0.00 65 1012.5
20260509160304 61 319 0.0 3.0 0.00 0.00 0.00 61 1012.6
20260509155800 61 351 0.0 1.0 0.00 0.00 0.00 63 1012.7
20260509155257 61 197 0.0 3.0 0.00 0.00 0.00 64 1012.5
20260509154753 61 120 0.0 2.0 0.00 0.00 0.00 64 1012.9
20260509154250 62 299 2.0 3.0 0.00 0.00 0.00 63 1012.8
20260509153747 62 160 3.0 6.0 0.00 0.00 0.00 62 1012.6
20260509153243 64 279 4.0 8.0 0.00 0.00 0.00 59 1012.6
20260509152739 64 192 1.0 3.0 0.00 0.00 0.00 61 1012.6
20260509152236 64 308 2.0 6.0 0.00 0.00 0.00 60 1012.7
20260509151733 65 102 0.0 4.0 0.00 0.00 0.00 60 1012.6
20260509151229 65 326 3.0 4.0 0.00 0.00 0.00 58 1012.7
20260509150728 65 326 5.0 9.0 0.00 0.00 0.00 55 1012.8
20260509150226 64 343 1.0 4.0 0.00 0.00 0.00 58 1012.8
20260509145722 63 107 0.0 2.0 0.00 0.00 0.00 63 1012.9
20260509145217 62 285 2.0 6.0 0.00 0.00 0.00 64 1012.8
20260509144714 62 313 4.0 7.0 0.00 0.00 0.00 65 1013.0
20260509144211 62 162 2.0 3.0 0.00 0.00 0.00 64 1012.9
20260509143708 61 134 1.0 3.0 0.00 0.00 0.00 72 1012.9
20260509143205 61 303 2.0 8.0 0.00 0.00 0.00 65 1012.7
20260509142700 61 339 1.0 7.0 0.00 0.00 0.00 67 1012.8
20260509142157 60 97 2.0 3.0 0.00 0.00 0.00 62 1013.0
20260509141653 60 76 1.0 6.0 0.00 0.00 0.00 66 1013.1
20260509141150 60 304 2.0 3.0 0.00 0.00 0.00 68 1013.1
20260509140647 59 296 2.0 3.0 0.00 0.00 0.00 71 1013.1
20260509140145 57 312 3.0 3.0 0.00 0.00 0.00 70 1012.9
20260509135641 59 297 2.0 2.0 0.00 0.00 0.00 68 1013.0
20260509135140 59 248 0.0 2.0 0.00 0.00 0.00 73 1013.1
20260509134636 56 282 1.0 3.0 0.00 0.00 0.00 76 1013.0
20260509134134 56 314 0.0 3.0 0.00 0.00 0.00 73 1012.5
20260509133631 53 83 0.0 1.0 0.00 0.00 0.00 73 1012.9
20260509133128 53 288 1.0 2.0 0.00 0.00 0.00 75 1013.1
20260509132626 53 317 3.0 3.0 0.00 0.00 0.00 73 1013.2
20260509132124 53 329 1.0 3.0 0.00 0.00 0.00 72 1013.4
20260509131620 53 21 0.0 0.0 0.00 0.00 0.00 75 1013.4
20260509131117 51 52 0.0 2.0 0.00 0.00 0.00 76 1013.5
20260509130613 51 328 0.0 0.0 0.00 0.00 0.00 77 1013.9
20260509130109 50 57 0.0 1.0 0.00 0.00 0.00 78 1013.9
20260509125606 50 20 0.0 0.0 0.00 0.00 0.00 79 1013.7
20260509125102 48 75 0.0 0.0 0.00 0.00 0.00 80 1014.1
20260509124559 47 101 0.0 1.0 0.00 0.00 0.00 86 1013.9
20260509124056 46 102 0.0 1.0 0.00 0.00 0.00 84 1013.7
20260509123554 46 107 1.0 2.0 0.00 0.00 0.00 87 1014.1
20260509123051 46 104 1.0 1.0 0.00 0.00 0.00 89 1014.0
20260509122547 45 99 0.0 0.0 0.00 0.00 0.00 91 1014.1
20260509122044 44 111 0.0 0.0 0.00 0.00 0.00 91 1014.3
20260509121540 44 69 0.0 1.0 0.00 0.00 0.00 92 1014.1
20260509121038 44 97 0.0 0.0 0.00 0.00 0.00 92 1014.2
20260509120536 44 111 0.0 0.0 0.00 0.00 0.00 93 1014.3
20260509120034 43 118 0.0 0.0 0.00 0.00 0.00 94 1014.1
20260509115531 43 122 0.0 0.0 0.00 0.00 0.00 94 1014.4
20260509115029 42 135 0.0 0.0 0.00 0.00 0.00 95 1014.2
20260509114527 42 183 0.0 0.0 0.00 0.00 0.00 95 1014.1
20260509114025 41 191 0.0 0.0 0.00 0.00 0.00 96 1014.1
20260509113523 41 173 0.0 0.0 0.00 0.00 0.00 97 1014.1
20260509113021 40 208 0.0 0.0 0.00 0.00 0.00 98 1014.3
20260509112517 40 228 0.0 0.0 0.00 0.00 0.00 99 1014.0
20260509112014 40 172 0.0 0.0 0.00 0.00 0.00 99 1013.9
20260509111511 39 171 0.0 0.0 0.00 0.00 0.00 99 1013.9
20260509111008 39 179 0.0 0.0 0.00 0.00 0.00 99 1013.6
20260509110504 39 134 0.0 0.0 0.00 0.00 0.00 99 1014.0
20260509110002 38 134 0.0 0.0 0.00 0.00 0.00 99 1013.9
20260509105500 38 134 0.0 0.0 0.00 0.00 0.00 99 1013.9
20260509104957 38 134 0.0 0.0 0.00 0.00 0.00 99 1014.1
20260509104454 38 134 0.0 0.0 0.00 0.00 0.00 99 1013.9
20260509103951 38 134 0.0 0.0 0.00 0.00 0.00 99 1014.1
20260509103449 38 103 0.0 0.0 0.00 0.00 0.00 99 1013.9
20260509102947 37 101 0.0 0.0 0.00 0.00 0.00 99 1013.9
20260509102444 37 345 0.0 0.0 0.00 0.00 0.00 99 1013.7
20260509101940 37 345 0.0 0.0 0.00 0.00 0.00 99 1013.6
20260509101436 37 344 0.0 0.0 0.00 0.00 0.00 99 1013.7
20260509100934 37 344 0.0 0.0 0.00 0.00 0.00 99 1013.9
20260509100431 37 344 0.0 0.0 0.00 0.00 0.00 99 1013.7
20260509095927 38 343 0.0 0.0 0.00 0.00 0.00 99 1013.7
20260509095425 38 343 0.0 0.0 0.00 0.00 0.00 99 1013.4
20260509094922 38 42 0.0 0.0 0.00 0.00 0.00 99 1013.4
20260509094418 38 41 0.0 0.0 0.00 0.00 0.00 99 1013.7
20260509093916 38 40 0.0 0.0 0.00 0.00 0.00 98 1013.6
20260509093413 38 109 0.0 0.0 0.00 0.00 0.00 98 1013.7
20260509092912 38 110 0.0 0.0 0.00 0.00 0.00 98 1013.6
20260509092409 38 109 0.0 0.0 0.00 0.00 0.00 98 1013.6
20260509091907 38 110 0.0 0.0 0.00 0.00 0.00 98 1013.5
20260509091403 39 109 0.0 0.0 0.00 0.00 0.00 98 1013.7
20260509090901 38 109 0.0 0.0 0.00 0.00 0.00 98 1013.9
20260509090358 39 108 1.0 1.0 0.00 0.00 0.00 98 1013.6
20260509085856 39 101 0.0 1.0 0.00 0.00 0.00 98 1014.0
20260509085353 38 100 0.0 0.0 0.00 0.00 0.00 97 1014.1
20260509084849 39 100 0.0 0.0 0.00 0.00 0.00 97 1014.1
20260509084346 39 109 0.0 0.0 0.00 0.00 0.00 97 1014.1
20260509083844 39 109 0.0 0.0 0.00 0.00 0.00 97 1014.1
20260509083340 40 108 0.0 1.0 0.00 0.00 0.00 97 1014.2
20260509082837 39 114 0.0 0.0 0.00 0.00 0.00 97 1014.2
20260509082333 39 114 0.0 0.0 0.00 0.00 0.00 96 1014.2
20260509081831 39 114 0.0 0.0 0.00 0.00 0.00 96 1014.2